TimePDT,TemperatureF,Dew PointF,Humidity,Sea Level PressureIn,VisibilityMPH,Wind Direction,Wind SpeedMPH,Gust SpeedMPH,PrecipitationIn,Events,Conditions,WindDirDegrees,DateUTC
12:15 AM,44.6,42.8,93,30.19,10.0,Calm,Calm,-,N/A,,Clear,0,2012-10-18 07:15:00
12:35 AM,44.6,41.0,87,30.18,10.0,Calm,Calm,-,N/A,,Clear,0,2012-10-18 07:35:00
12:55 AM,44.6,42.8,93,30.18,10.0,Calm,Calm,-,N/A,,Clear,0,2012-10-18 07:55:00
1:15 AM,46.4,42.8,87,30.17,10.0,Calm,Calm,-,N/A,,Clear,0,2012-10-18 08:15:00
1:35 AM,46.4,42.8,87,30.17,10.0,Calm,Calm,-,N/A,,Clear,0,2012-10-18 08:35:00
1:55 AM,50.0,42.8,76,30.17,10.0,Calm,Calm,-,N/A,,Clear,0,2012-10-18 08:55:00
2:15 AM,48.2,42.8,82,30.16,10.0,Calm,Calm,-,N/A,,Clear,0,2012-10-18 09:15:00
2:35 AM,46.4,42.8,87,30.16,10.0,ESE,4.6,-,N/A,,Clear,120,2012-10-18 09:35:00
2:55 AM,48.2,42.8,82,30.16,10.0,Calm,Calm,-,N/A,,Clear,0,2012-10-18 09:55:00
3:15 AM,46.4,42.8,87,30.14,10.0,Calm,Calm,-,N/A,,Clear,0,2012-10-18 10:15:00
3:35 AM,48.2,42.8,82,30.14,10.0,Calm,Calm,-,N/A,,Clear,0,2012-10-18 10:35:00
3:55 AM,46.4,42.8,87,30.12,10.0,Calm,Calm,-,N/A,,Clear,0,2012-10-18 10:55:00
4:15 AM,50.0,42.8,76,30.11,10.0,ENE,9.2,-,N/A,,Clear,60,2012-10-18 11:15:00
4:35 AM,50.0,42.8,76,30.11,10.0,ENE,5.8,-,N/A,,Clear,70,2012-10-18 11:35:00
4:55 AM,48.2,42.8,82,30.10,10.0,East,8.1,-,N/A,,Clear,80,2012-10-18 11:55:00
5:15 AM,50.0,44.6,82,30.08,10.0,East,6.9,-,N/A,,Clear,80,2012-10-18 12:15:00
5:35 AM,50.0,44.6,82,30.07,10.0,East,6.9,-,N/A,,Clear,90,2012-10-18 12:35:00
5:55 AM,51.8,44.6,76,30.06,10.0,East,12.7,20.7,N/A,,Clear,80,2012-10-18 12:55:00
6:15 AM,51.8,44.6,76,30.05,10.0,East,16.1,21.9,N/A,,Clear,80,2012-10-18 13:15:00
6:35 AM,53.6,44.6,72,30.04,10.0,East,16.1,-,N/A,,Clear,80,2012-10-18 13:35:00
6:55 AM,53.6,44.6,72,30.04,10.0,East,10.4,19.6,N/A,,Clear,100,2012-10-18 13:55:00
7:15 AM,53.6,42.8,67,30.04,10.0,WNW,3.5,-,N/A,,Clear,290,2012-10-18 14:15:00
7:35 AM,53.6,42.8,67,30.04,10.0,NE,4.6,-,N/A,,Clear,50,2012-10-18 14:35:00
7:55 AM,51.8,42.8,71,30.05,10.0,North,4.6,-,N/A,,Clear,360,2012-10-18 14:55:00
8:15 AM,51.8,42.8,71,30.05,10.0,East,5.8,-,N/A,,Clear,90,2012-10-18 15:15:00
8:35 AM,53.6,44.6,72,30.03,10.0,East,11.5,17.3,N/A,,Clear,100,2012-10-18 15:35:00
8:55 AM,55.4,44.6,67,30.04,10.0,Calm,Calm,-,N/A,,Clear,0,2012-10-18 15:55:00
9:15 AM,55.4,44.6,67,30.04,10.0,East,5.8,-,N/A,,Clear,90,2012-10-18 16:15:00
9:35 AM,59.0,44.6,59,30.03,10.0,East,8.1,-,N/A,,Clear,90,2012-10-18 16:35:00
9:55 AM,59.0,44.6,59,30.04,10.0,Calm,Calm,-,N/A,,Clear,0,2012-10-18 16:55:00
10:15 AM,60.8,44.6,55,30.04,10.0,East,5.8,-,N/A,,Clear,80,2012-10-18 17:15:00
10:35 AM,62.6,44.6,52,30.03,10.0,East,8.1,-,N/A,,Clear,80,2012-10-18 17:35:00
10:55 AM,62.6,44.6,52,30.03,10.0,East,5.8,-,N/A,,Clear,90,2012-10-18 17:55:00
11:15 AM,64.4,42.8,45,30.03,10.0,East,5.8,-,N/A,,Clear,100,2012-10-18 18:15:00
11:35 AM,66.2,42.8,43,30.03,10.0,East,6.9,-,N/A,,Clear,100,2012-10-18 18:35:00
11:55 AM,68.0,44.6,43,30.02,10.0,ENE,4.6,-,N/A,,Clear,70,2012-10-18 18:55:00
12:15 PM,68.0,42.8,40,30.02,10.0,NE,3.5,-,N/A,,Clear,50,2012-10-18 19:15:00
12:35 PM,68.0,42.8,40,30.02,10.0,ENE,4.6,-,N/A,,Clear,60,2012-10-18 19:35:00
12:55 PM,69.8,41.0,35,30.01,10.0,East,5.8,-,N/A,,Clear,80,2012-10-18 19:55:00
1:15 PM,71.6,42.8,35,30.00,10.0,East,4.6,-,N/A,,Clear,90,2012-10-18 20:15:00
1:35 PM,71.6,42.8,35,29.99,10.0,WSW,3.5,-,N/A,,Clear,250,2012-10-18 20:35:00
1:55 PM,68.0,46.4,46,29.98,7.0,Calm,Calm,-,N/A,,Clear,0,2012-10-18 20:55:00
2:15 PM,69.8,46.4,43,29.97,10.0,Calm,Calm,-,N/A,,Clear,0,2012-10-18 21:15:00
2:35 PM,71.6,48.2,43,29.96,7.0,Calm,Calm,-,N/A,,Clear,0,2012-10-18 21:35:00
2:55 PM,69.8,46.4,43,29.96,7.0,NW,6.9,-,N/A,,Clear,310,2012-10-18 21:55:00
3:15 PM,62.6,48.2,59,29.96,10.0,WNW,3.5,-,N/A,,Clear,300,2012-10-18 22:15:00
3:35 PM,60.8,48.2,63,29.97,10.0,NW,8.1,-,N/A,,Clear,320,2012-10-18 22:35:00
3:55 PM,59.0,50.0,72,29.97,10.0,NW,9.2,-,N/A,,Clear,320,2012-10-18 22:55:00
4:15 PM,59.0,51.8,77,29.97,7.0,NNW,6.9,-,N/A,,Clear,330,2012-10-18 23:15:00
4:35 PM,59.0,50.0,72,29.97,10.0,NW,4.6,-,N/A,,Clear,320,2012-10-18 23:35:00
4:55 PM,57.2,50.0,77,29.97,10.0,Calm,Calm,-,N/A,,Clear,0,2012-10-18 23:55:00
5:15 PM,57.2,50.0,77,29.98,5.0,West,3.5,-,N/A,,Haze,270,2012-10-19 00:15:00
5:35 PM,57.2,50.0,77,29.97,5.0,Calm,Calm,-,N/A,,Haze,0,2012-10-19 00:35:00
5:55 PM,55.4,50.0,82,29.98,2.5,Calm,Calm,-,N/A,,Haze,0,2012-10-19 00:55:00
6:15 PM,55.4,50.0,82,29.99,3.0,West,3.5,-,N/A,,Haze,260,2012-10-19 01:15:00
6:35 PM,53.6,50.0,88,30.01,2.0,Calm,Calm,-,N/A,,Clear,0,2012-10-19 01:35:00
6:55 PM,53.6,50.0,88,30.00,4.0,SE,3.5,-,N/A,,Clear,140,2012-10-19 01:55:00
7:15 PM,53.6,50.0,88,30.01,5.0,Calm,Calm,-,N/A,,Scattered Clouds,0,2012-10-19 02:15:00
7:35 PM,53.6,50.0,88,29.99,10.0,ESE,5.8,-,N/A,,Mostly Cloudy,120,2012-10-19 02:35:00
7:55 PM,55.4,46.4,72,29.98,10.0,Calm,Calm,-,N/A,,Overcast,0,2012-10-19 02:55:00
8:15 PM,55.4,46.4,72,29.98,10.0,Calm,Calm,-,N/A,,Mostly Cloudy,0,2012-10-19 03:15:00
8:35 PM,53.6,46.4,77,29.98,10.0,East,5.8,-,N/A,,Mostly Cloudy,90,2012-10-19 03:35:00
8:55 PM,55.4,46.4,72,29.96,10.0,East,9.2,-,N/A,Rain,Light Rain,90,2012-10-19 03:55:00
11:35 PM,53.6,50.0,88,30.01,10.0,South,10.4,-,N/A,,Scattered Clouds,190,2012-10-19 06:35:00
11:55 PM,53.6,50.0,88,30.00,10.0,South,9.2,-,N/A,,Scattered Clouds,180,2012-10-19 06:55:00